This is the latest recevied weather packets stored in our database for station/object AJ7DN. If no packets are shown the sender has not sent any weather packets the latest 10 day(s).
| Time | Temp. | Humidity | Pressure | Rain* | Wind** | Luminosity | Snow |
|---|---|---|---|---|---|---|---|
| 1777927347 | 21.11° C | 63% | 1017.4 hPa | 0 mm | - | 672 W/m² | - |
| 1777927046 | 20.56° C | 65% | 1017.2 hPa | 0 mm | - | 661 W/m² | - |
| 1777926743 | 20.56° C | 64% | 1017.4 hPa | 0 mm | - | 681 W/m² | - |
| 1777926443 | 20° C | 67% | 1017.5 hPa | 0 mm | - | 697 W/m² | - |
| 1777926141 | 19.44° C | 65% | 1017.6 hPa | 0 mm | - | 713 W/m² | - |
| 1777925838 | 19.44° C | 66% | 1017.7 hPa | 0 mm | - | 701 W/m² | - |
| 1777925535 | 18.89° C | 67% | 1017.7 hPa | 0 mm | - | 684 W/m² | - |
| 1777925232 | 18.89° C | 67% | 1017.8 hPa | 0 mm | - | 718 W/m² | - |
| 1777924928 | 18.89° C | 68% | 1017.8 hPa | 0 mm | - | 337 W/m² | - |
| 1777924625 | 18.89° C | 68% | 1017.8 hPa | 0 mm | - | 760 W/m² | - |
| 1777924321 | 18.89° C | 69% | 1018 hPa | 0 mm | - | 779 W/m² | - |
| 1777924018 | 17.78° C | 71% | 1017.9 hPa | 0 mm | - | 655 W/m² | - |
| 1777923714 | 17.22° C | 73% | 1018 hPa | 0 mm | - | 352 W/m² | - |
| 1777923410 | 17.22° C | 73% | 1017.9 hPa | 0 mm | - | 347 W/m² | - |
| 1777923108 | 17.22° C | 73% | 1018.1 hPa | 0 mm | - | 222 W/m² | - |
| 1777922806 | 16.67° C | 74% | 1018.1 hPa | 0 mm | - | 225 W/m² | - |
| 1777922504 | 16.67° C | 74% | 1018 hPa | 0 mm | - | 216 W/m² | - |
| 1777922202 | 16.67° C | 74% | 1018 hPa | 0 mm | - | 220 W/m² | - |
| 1777921898 | 16.67° C | 75% | 1018.2 hPa | 0 mm | - | 279 W/m² | - |
| 1777921594 | 16.11° C | 75% | 1018.1 hPa | 0 mm | - | 205 W/m² | - |
| 1777921291 | 16.11° C | 77% | 1018.2 hPa | 0 mm | - | 205 W/m² | - |
| 1777920987 | 15.56° C | 78% | 1018.1 hPa | 0 mm | - | 169 W/m² | - |
| 1777920684 | 15.56° C | 78% | 1018.3 hPa | 0 mm | - | 160 W/m² | - |
| 1777920380 | 15.56° C | 78% | 1018.2 hPa | 0 mm | - | 173 W/m² | - |
| 1777920075 | 15.56° C | 78% | 1018.2 hPa | 0 mm | - | 158 W/m² | - |
* Rain latest hour (hover to see other rain measurements)
** Current wind speed in m/s (hover to see current wind gust speed)